Home > Time Zones > World Clock > Weather > Iran > Rasht > Past weeks

Flag for Iran Weather past 2 weeks in Rasht, Iran

Now
82 °F

Scattered clouds.


Feels Like: 85 °F
Forecast: 69 / 90 °F
Wind: 9 mph from North

Location: Rasht Airport

Current Time: Jul 31, 2014 at 12:32:13 PM

Latest Report: Jul 31, 2014 at 12:00 PM


Visibility: N/A

Pressure: 29.89 "Hg

Humidity: 62%

Dew point: 68 °F

Location of RashtLocation

Historic Weather in Rasht — Graph

°F

Rasht temperature yesterday

Maximum temperature yesterday: 82 °F (at 11:30 AM)
Minimum temperature yesterday: 72 °F (at 11:30 PM)
Average temperature yesterday: 79 °F

Past Weeks' High & Low Weather Summary

 TemperatureHumidityPressure
High93 °F (Jul 27, 1:30 PM)94% (Jul 17, 3:30 AM)29.92 "Hg (Jul 17, 3:30 AM)
Low68 °F (Jul 24, 4:30 AM)32% (Jul 27, 1:30 PM)29.56 "Hg (Jul 18, 8:30 PM)
Average82 °F65%29.76 "Hg
* Reported Jul 16 12:00 Noon — Jul 31 11:30 AM, Rasht, Weather by CustomWeather, © 2014

Note: Actual official high and low records may vary slightly from our data, if they occured in-between our weather recording intervals... More about our weather records

Advertising

Rasht weather history for previous 24 hours

 ConditionsComfort  
Time TempWeatherWind HumidityBarometerVisibility
11:30 AM
Jul 31
82 °FScattered clouds.7 mph62%29.89 "HgN/A
11:00 AM79 °FScattered clouds.2 mph70%29.89 "HgN/A
10:30 AM79 °FScattered clouds.2 mph70%29.89 "HgN/A
10:00 AM79 °FScattered clouds.5 mph65%29.89 "HgN/A
9:30 AM75 °FScattered clouds.2 mph74%29.89 "HgN/A
9:00 AM73 °FScattered clouds.2 mph89%29.89 "HgN/A
8:30 AM73 °FScattered clouds.5 mph89%29.89 "HgN/A
8:00 AM70 °FScattered clouds.9 mph78%29.89 "HgN/A
7:30 AM70 °FPassing clouds.9 mph78%29.89 "HgN/A
7:00 AM68 °FPassing clouds.No wind94%29.86 "HgN/A
6:30 AM68 °FThunderstorms. Partly cloudy.No wind94%29.86 "Hg4 mi
5:30 AM70 °FPassing clouds.5 mph83%29.86 "HgN/A
4:30 AM70 °FPassing clouds.5 mph83%29.86 "HgN/A
12:30 AM72 °FPassing clouds.No wind83%29.89 "HgN/A
11:30 PM
Jul 30
72 °FClear.No wind83%29.89 "Hg10 mi
10:30 PM73 °FClear.5 mph78%29.92 "Hg10 mi
8:30 PM75 °FSunny.5 mph74%29.89 "Hg10 mi
8:00 PM82 °FPassing clouds.5 mph55%29.89 "HgN/A
7:30 PM82 °FPassing clouds.5 mph55%29.89 "HgN/A
7:00 PM82 °FScattered clouds.5 mph55%29.89 "HgN/A
6:30 PM82 °FScattered clouds.5 mph55%29.89 "HgN/A
6:00 PM81 °FPartly sunny.5 mph58%29.89 "HgN/A
5:30 PM81 °FPartly sunny.5 mph58%29.89 "HgN/A
5:00 PM81 °FBroken clouds.5 mph58%29.89 "HgN/A
4:30 PM81 °FBroken clouds.5 mph58%29.89 "HgN/A
4:00 PM82 °FBroken clouds.7 mph55%29.89 "HgN/A
3:30 PM82 °FBroken clouds.7 mph55%29.89 "HgN/A
3:00 PM82 °FBroken clouds.7 mph58%29.89 "HgN/A
2:30 PM82 °FBroken clouds.7 mph58%29.89 "HgN/A
2:00 PM82 °FBroken clouds.9 mph62%29.92 "HgN/A
1:30 PM82 °FBroken clouds.9 mph62%29.92 "HgN/A
1:00 PM82 °FBroken clouds.9 mph62%29.92 "HgN/A
12:30 PM82 °FBroken clouds.9 mph62%29.92 "HgN/A
12:00 PM82 °FBroken clouds.7 mph58%29.92 "HgN/A
Weather by CustomWeather, © 2014

See weather overviewHow to use our weather pages